Hourly Data Report for October 02, 2017

All times are specified in Local Standard Time (LST). Add 1 hour to adjust for Daylight Saving Time where and when it is observed.

EAR FALLS (AUT)
ONTARIO

50°37'50.000" N
93°13'17.000" W
362.60 m
6012199
71295
XEA

Download Data

Hourly Data (October 2017)
Hourly Data Report for October 2, 2017
Temp Definition
°C
Dew Point Temp Definition
°C
Rel Hum Definition
%
Wind Dir Definition
10's deg

Wind Spd Definition
km/h
Visibility Definition
km
Stn Press Definition
kPa
Hmdx Definition


Wind Chill Definition


Weather Definition


TIME
00:00 12.1 11.2 94 14 6   96.59     LegendNANA
01:00 12.4 11.4 94 13 6   96.54     LegendNANA
02:00 12.7 11.7 94 11 5   96.52     LegendNANA
03:00 13.0 11.7 92 13 8   96.53     LegendNANA
04:00 13.1 11.6 91 11 5   96.54     LegendNANA
05:00 13.0 11.1 89 11 8   96.51     LegendNANA
06:00 12.5 10.5 88 13 6   96.51     LegendNANA
07:00 12.4 10.1 86 12 7   96.53     LegendNANA
08:00 12.8 9.8 82 13 9   96.56     LegendNANA
09:00 11.2 10.0 93 13 8   96.60     LegendNANA
10:00 11.5 10.7 95 13 6   96.56     LegendNANA
11:00 12.0 11.2 95 13 7   96.55     LegendNANA
12:00 12.6 11.8 95 16 5   96.52     LegendNANA
13:00 12.7 11.9 94 17 5   96.57     LegendNANA
14:00 13.1 12.1 94 19 8   96.62     LegendNANA
15:00 13.3 12.3 94 18 5   96.66     LegendNANA
16:00 13.2 12.4 95 17 4   96.71     LegendNANA
17:00 13.3 12.6 95 14 4   96.73     LegendNANA
18:00 13.1 12.3 95 15 5   96.81     LegendNANA
19:00 12.4 11.6 95 17 3   96.91     LegendNANA
20:00 12.3 11.6 96 13 3   96.95     LegendNANA
21:00 11.9 11.3 96 20 3   96.98     LegendNANA
22:00 11.0 10.4 96 13 2   97.01     LegendNANA
23:00 10.4 9.8 96 25 1   97.01     LegendNANA

Notes on Data Quality.

Legend

  • E = Estimated
  • M = Missing
  • NA = Not Available
  • ‡ = Partner data that is not subject to review by the National Climate Archives
Date modified: